Wind_Speed
41 41 42 42 43 44 44 45 45 46 47 48 50 51 52 54 55 56 58 58 59 61 62 63 64 65 66 66 66 66 67 66 66 66 65 65 64 64 63 62 62 61 61
41 40 40 40 41 42 43 44 46 48 49 50 52 53 54 56 57 58 60 61 62 63 64 65 66 66 66 66 66 65 65 65 64 62 61 60 60 60 59 58 58 57 57
38 39 39 40 41 43 44 46 47 49 50 52 53 55 56 58 59 60 62 63 63 64 65 65 65 65 65 64 63 62 61 60 59 57 55 55 55 55 54 53 53 52 50
36 37 38 39 42 43 44 46 48 50 51 53 55 56 58 59 60 61 63 64 64 65 65 65 65 63 62 60 58 56 55 53 52 51 50 49 49 48 47 46 44 43 42
35 37 38 40 41 43 45 47 49 50 52 54 55 57 58 60 61 62 63 64 64 64 63 62 61 58 56 53 51 49 47 46 46 45 44 42 41 40 39 38 36 36 36
35 36 38 40 41 43 45 47 49 50 52 54 55 57 58 60 61 62 63 63 62 60 58 56 53 50 48 46 44 42 41 39 39 38 37 35 33 33 32 31 31 30 30
35 36 37 39 41 43 44 46 47 49 50 52 53 55 57 58 59 59 58 57 54 51 49 46 43 41 39 38 36 35 34 33 31 30 29 28 27 27 27 27 26 26 26
33 34 36 38 40 41 42 44 45 46 48 50 51 52 52 52 52 50 48 45 42 40 37 35 34 32 30 29 28 27 26 25 24 23 22 22 22 22 22 22 22 22 23
32 33 35 36 38 39 40 41 42 44 45 47 48 47 47 45 43 41 38 35 33 30 28 27 25 23 22 21 20 20 19 19 18 18 17 17 18 18 19 19 19 20 21
32 33 34 35 36 37 37 38 39 41 42 42 42 41 39 38 37 34 31 29 26 23 21 19 17 16 15 14 14 14 14 15 15 15 15 15 15 16 16 17 18 20 21
30 31 32 32 33 33 34 35 36 37 37 37 36 34 33 32 30 28 25 22 19 17 15 13 12 11 11 11 12 12 12 12 12 13 14 14 15 15 17 18 19 20 21
28 28 28 29 29 29 30 31 32 32 31 31 30 29 28 26 24 21 19 16 14 12 11 11 10 10 10 11 11 11 12 12 12 13 14 15 16 17 18 19 19 20 21
26 26 26 26 26 26 27 27 27 27 27 26 25 24 23 22 20 17 14 12 11 11 11 10 10 10 11 11 12 12 13 14 15 15 16 17 17 18 19 19 20 20 20
23 23 23 23 22 22 23 23 23 23 23 22 21 20 19 18 16 14 12 11 11 10 11 11 11 11 12 13 14 14 15 16 16 17 17 18 19 19 20 20 20 20 19
20 20 20 19 19 20 20 20 19 19 19 19 18 17 16 14 13 12 11 11 11 11 11 12 12 13 14 14 15 16 17 17 18 18 19 19 20 20 20 20 20 19 19
18 18 18 17 17 17 17 17 17 17 17 16 15 14 13 12 11 11 11 11 12 12 12 12 13 13 14 15 16 17 18 18 19 19 20 20 21 21 21 20 20 20 19
17 17 17 16 15 15 15 15 15 15 15 14 13 12 11 11 10 10 11 11 12 12 13 13 13 13 14 15 17 18 18 19 20 20 21 21 22 22 21 21 20 20 19
15 15 14 13 13 12 12 12 12 12 12 11 11 10 10 10 10 11 11 12 12 12 13 13 13 14 14 15 17 18 19 20 21 21 21 22 22 21 20 20 20 20 19
13 13 12 11 11 10 10 10 10 10 10 9 9 9 10 10 11 11 11 12 12 12 13 13 14 14 15 16 17 18 19 20 20 20 21 22 22 22 21 20 20 20 19
12 12 11 10 9 9 8 8 9 9 9 8 8 8 9 10 10 10 10 11 11 12 12 13 14 14 15 16 17 18 19 19 20 20 21 21 21 21 21 20 20 20 19
12 11 10 10 9 8 7 7 8 8 7 7 7 8 8 9 9 9 10 10 11 11 12 13 14 14 15 16 17 18 18 19 20 20 21 21 21 21 21 20 20 20 19
11 10 10 9 8 7 7 7 7 6 6 6 6 7 7 8 8 8 9 10 10 11 12 13 14 14 15 16 17 18 19 19 20 20 21 20 20 20 21 20 20 20 19
11 11 10 9 8 7 7 6 6 6 5 5 6 6 6 7 7 8 9 10 10 11 12 13 14 14 15 16 17 18 19 19 20 20 20 20 20 20 20 20 20 20 19
12 11 10 9 8 8 7 6 6 5 5 5 5 5 6 6 7 7 9 9 10 11 12 13 13 14 15 16 17 18 19 19 20 20 20 20 20 19 19 19 19 19 19
14 12 11 10 9 8 7 7 6 6 5 5 5 5 6 6 7 7 8 9 10 11 12 12 13 14 15 16 17 18 18 19 20 20 20 20 20 20 20 19 19 19 19
15 14 12 11 10 9 8 7 7 6 6 6 6 6 6 7 7 8 8 9 10 11 11 12 13 14 15 16 16 17 18 19 19 20 20 20 20 20 20 20 19 19 18
Wind_Direction
274 276 278 281 282 283 285 285 287 288 289 290 291 291 291 292 292 292 292 292 291 291 290 290 290 289 289 289 289 288 288 288 287 287 287 286 286 285 286 286 285 285 284
275 277 280 281 282 283 284 285 287 289 290 290 290 291 291 292 293 293 292 292 291 291 290 290 291 290 290 290 289 289 289 289 288 288 288 287 287 287 287 287 287 286 286
274 276 278 279 281 283 284 286 288 289 290 290 291 292 292 293 293 293 293 292 292 292 292 291 291 291 291 291 291 290 290 290 290 289 288 288 288 288 288 288 288 288 288
276 277 278 280 282 284 286 288 289 289 291 292 292 293 294 294 294 294 293 293 293 293 292 292 292 293 293 292 292 292 291 291 291 291 290 289 289 290 290 291 291 292 292
280 281 282 284 286 287 289 289 290 291 293 294 294 294 295 296 295 295 294 294 294 294 294 293 293 292 292 292 293 293 293 293 293 293 293 292 293 293 294 294 294 293 293
282 283 284 286 288 289 290 291 293 294 295 296 296 297 297 297 296 296 296 296 296 295 294 293 293 292 292 293 293 293 294 294 295 295 295 295 296 297 297 297 297 296 296
282 284 286 287 289 291 293 294 295 297 298 299 299 299 299 300 300 300 300 299 298 297 296 295 294 293 294 294 294 295 296 298 298 298 299 299 299 300 301 301 303 303 302
286 286 288 289 292 293 295 297 299 300 301 303 304 305 305 305 306 305 304 304 303 302 300 299 298 298 297 297 297 298 299 300 301 302 302 303 304 305 306 307 308 309 309
289 291 292 294 295 297 298 300 302 303 305 306 307 308 309 310 310 310 310 310 310 309 308 307 307 306 305 304 304 305 306 308 308 309 310 311 313 314 314 315 315 315 315
292 294 296 297 298 300 302 303 305 307 308 310 311 313 313 314 314 313 313 314 315 316 317 318 318 318 318 319 320 322 323 323 323 324 326 326 326 326 325 324 324 323 322
295 296 297 298 300 302 305 307 309 311 313 315 316 318 319 319 319 320 321 322 324 327 330 332 334 337 338 340 342 343 343 342 342 343 343 343 341 338 336 335 332 331 330
297 298 299 301 303 305 309 312 314 315 317 319 321 324 325 326 328 330 332 335 341 347 352 356 358 360 1 2 4 5 5 4 3 1 358 354 350 346 343 341 339 337 335
300 301 302 305 307 310 314 317 318 320 322 324 327 330 333 336 339 343 348 356 4 9 15 17 19 20 20 21 22 21 20 17 13 8 3 358 355 352 349 347 345 344 343
302 303 305 308 311 315 318 321 322 325 328 331 334 337 340 343 348 354 1 10 20 28 34 34 35 35 36 36 33 29 26 21 15 11 7 4 1 359 357 355 354 354 354
304 306 309 312 315 318 321 325 328 332 335 338 341 345 348 354 0 9 18 28 37 42 43 44 45 44 42 38 33 27 22 18 15 12 10 8 7 6 4 3 3 3 4
308 310 311 311 314 318 323 328 332 337 341 344 348 354 1 9 17 25 34 42 48 49 49 50 48 45 40 36 30 25 22 19 17 15 14 13 12 10 9 9 11 12 13
310 310 310 310 312 317 322 328 334 340 345 351 357 4 13 22 31 39 46 50 51 50 50 49 46 42 38 33 29 26 24 22 20 19 18 16 14 13 15 15 16 17 20
316 315 314 314 316 321 326 332 339 346 352 359 7 16 26 35 41 45 50 53 53 51 48 46 42 39 35 32 29 26 23 21 21 20 18 17 17 18 19 19 20 21 24
327 325 323 322 323 326 331 337 345 354 1 10 20 30 38 44 47 50 52 52 50 47 44 40 36 34 32 29 26 23 21 20 21 20 20 20 21 22 22 23 24 26 29
336 335 332 332 334 335 339 344 351 360 8 18 29 38 44 46 47 49 50 49 46 43 39 35 32 30 29 26 24 22 22 22 21 21 22 23 24 24 26 27 28 30 32
342 341 341 345 348 348 349 351 355 3 14 26 33 39 43 45 46 46 45 43 41 37 35 32 29 28 27 25 25 25 24 23 23 24 25 25 26 27 29 30 32 33 36
350 350 351 353 355 355 356 358 1 8 18 26 32 38 41 43 43 41 39 37 36 35 33 30 29 28 27 28 29 27 25 24 25 25 24 25 27 29 31 33 34 36 38
0 0 3 5 5 5 5 5 7 12 19 25 31 37 40 40 39 37 36 35 35 34 31 29 28 30 31 31 29 28 27 27 26 25 25 26 28 31 33 35 37 39 41
8 7 8 9 10 11 11 12 15 19 24 30 34 38 39 38 36 36 36 37 35 34 32 31 32 33 32 31 30 30 30 29 28 27 27 29 30 32 34 36 38 40 43
17 16 15 16 18 20 20 21 26 30 33 37 39 40 40 39 38 38 38 38 36 35 35 35 35 35 33 33 32 32 31 29 29 29 30 32 33 35 36 38 39 41 43
26 27 27 29 31 31 31 32 36 40 43 45 47 46 45 44 44 44 42 39 38 38 38 39 39 37 34 34 33 31 30 29 30 30 31 33 35 37 38 39 41 42 44
Height
5792 5791 5790 5788 5787 5785 5782 5780 5777 5775 5772 5769 5766 5763 5759 5756 5752 5748 5744 5739 5735 5731 5726 5721 5716 5711 5706 5702 5697 5693 5689 5684 5681 5676 5670 5665 5660 5656 5652 5648 5644 5640 5637
5783 5782 5780 5779 5777 5775 5773 5770 5767 5764 5761 5757 5754 5750 5746 5742 5738 5733 5728 5724 5719 5714 5709 5704 5698 5693 5688 5683 5678 5673 5669 5665 5661 5657 5652 5647 5642 5638 5635 5631 5627 5623 5619
5773 5772 5770 5769 5767 5765 5762 5759 5756 5752 5749 5745 5741 5737 5732 5727 5723 5718 5713 5708 5702 5697 5692 5686 5680 5675 5670 5665 5660 5655 5650 5646 5642 5639 5635 5630 5626 5622 5619 5615 5611 5607 5603
5764 5762 5761 5759 5756 5754 5751 5748 5744 5740 5736 5732 5728 5723 5718 5713 5708 5702 5697 5691 5685 5679 5674 5668 5662 5657 5652 5647 5643 5638 5634 5630 5626 5623 5619 5615 5611 5607 5605 5602 5598 5594 5590
5755 5753 5751 5749 5746 5743 5740 5737 5733 5728 5724 5719 5715 5709 5704 5699 5693 5686 5680 5674 5668 5661 5655 5650 5645 5640 5636 5631 5628 5624 5621 5617 5613 5609 5606 5602 5599 5596 5593 5590 5587 5584 5579
5745 5743 5741 5739 5736 5733 5729 5725 5721 5717 5712 5707 5702 5696 5690 5684 5677 5671 5664 5657 5650 5644 5638 5633 5629 5625 5621 5618 5615 5612 5609 5606 5602 5598 5595 5592 5589 5586 5584 5581 5578 5575 5572
5736 5734 5731 5729 5726 5722 5719 5714 5710 5705 5700 5695 5689 5682 5676 5669 5662 5654 5647 5640 5634 5628 5623 5619 5615 5612 5609 5607 5604 5602 5599 5596 5594 5591 5588 5585 5582 5579 5577 5574 5571 5567 5564
5727 5724 5722 5719 5716 5712 5708 5704 5699 5694 5689 5683 5676 5669 5662 5655 5647 5640 5633 5627 5621 5616 5611 5608 5605 5602 5600 5598 5596 5594 5591 5589 5587 5585 5582 5580 5577 5574 5571 5569 5565 5562 5558
5718 5716 5713 5710 5706 5703 5699 5694 5689 5683 5678 5672 5665 5658 5651 5644 5637 5630 5624 5618 5613 5608 5604 5601 5598 5596 5594 5592 5590 5588 5586 5584 5582 5580 5578 5575 5572 5570 5567 5564 5561 5558 5554
5709 5707 5704 5701 5697 5694 5689 5685 5680 5674 5668 5662 5655 5649 5642 5636 5629 5623 5617 5612 5607 5603 5599 5596 5594 5592 5590 5588 5587 5585 5583 5581 5579 5577 5574 5572 5569 5567 5564 5561 5557 5553 5549
5701 5699 5696 5693 5689 5686 5681 5677 5672 5666 5660 5654 5648 5642 5636 5629 5623 5618 5612 5608 5604 5600 5597 5595 5593 5591 5589 5587 5585 5583 5581 5579 5577 5575 5572 5570 5567 5564 5561 5557 5553 5549 5545
5694 5691 5689 5686 5682 5678 5674 5669 5665 5659 5654 5648 5643 5637 5631 5625 5619 5614 5609 5605 5602 5599 5596 5594 5593 5591 5589 5587 5585 5583 5581 5579 5576 5574 5571 5569 5566 5562 5558 5555 5550 5546 5541
5687 5684 5682 5679 5675 5672 5668 5664 5659 5654 5649 5644 5638 5633 5628 5622 5617 5613 5609 5605 5602 5599 5597 5595 5594 5592 5590 5588 5586 5584 5582 5579 5577 5574 5571 5568 5564 5561 5557 5552 5548 5543 5539
5681 5679 5676 5673 5669 5666 5663 5659 5654 5650 5645 5640 5635 5631 5626 5621 5617 5613 5610 5606 5604 5601 5599 5597 5596 5594 5592 5590 5588 5586 5583 5581 5578 5575 5571 5568 5564 5560 5555 5551 5546 5542 5537
5676 5673 5670 5667 5665 5662 5658 5655 5651 5647 5642 5638 5634 5629 5625 5621 5617 5614 5611 5608 5606 5604 5602 5600 5598 5596 5594 5593 5590 5588 5585 5582 5579 5575 5572 5567 5563 5559 5554 5550 5545 5541 5536
5670 5668 5665 5663 5660 5658 5655 5652 5648 5644 5640 5636 5632 5629 5625 5622 5618 5616 5613 5611 5608 5607 5605 5603 5601 5599 5597 5595 5593 5590 5587 5584 5580 5576 5572 5568 5563 5559 5555 5550 5545 5541 5537
5666 5663 5661 5659 5656 5654 5651 5649 5646 5643 5639 5635 5632 5629 5626 5623 5620 5618 5615 5613 5612 5610 5608 5606 5604 5602 5600 5598 5595 5592 5589 5586 5582 5578 5573 5569 5564 5560 5555 5551 5546 5542 5538
5662 5659 5657 5654 5653 5651 5649 5646 5644 5641 5638 5635 5632 5629 5627 5624 5622 5620 5618 5616 5615 5613 5611 5609 5607 5605 5603 5600 5597 5594 5591 5587 5583 5579 5575 5570 5566 5561 5557 5552 5548 5544 5540
5659 5656 5653 5651 5650 5648 5646 5645 5643 5640 5638 5635 5633 5631 5628 5626 5624 5623 5621 5619 5617 5616 5614 5612 5610 5607 5605 5602 5600 5597 5593 5589 5585 5581 5577 5572 5568 5563 5559 5554 5550 5546 5542
5657 5654 5651 5649 5647 5646 5644 5643 5642 5640 5638 5636 5634 5632 5630 5628 5627 5625 5623 5622 5620 5618 5616 5614 5612 5610 5607 5605 5602 5598 5595 5591 5587 5583 5579 5574 5570 5566 5561 5557 5553 5549 5546
5655 5652 5650 5648 5646 5645 5644 5642 5641 5640 5638 5636 5635 5633 5632 5630 5629 5627 5626 5624 5622 5621 5619 5616 5614 5612 5609 5607 5604 5600 5597 5593 5590 5585 5581 5577 5573 5568 5564 5560 5556 5552 5549
5654 5652 5649 5647 5646 5644 5643 5642 5641 5640 5638 5637 5636 5635 5633 5632 5631 5629 5628 5626 5624 5623 5621 5618 5616 5614 5611 5609 5606 5603 5599 5596 5592 5588 5584 5580 5575 5571 5567 5563 5560 5556 5553
5653 5651 5649 5647 5645 5644 5643 5642 5641 5640 5639 5638 5637 5636 5635 5633 5632 5631 5629 5628 5626 5624 5623 5621 5618 5616 5613 5611 5608 5605 5602 5598 5594 5590 5587 5582 5578 5575 5571 5567 5564 5560 5557
5654 5651 5649 5647 5646 5644 5643 5642 5641 5640 5639 5638 5637 5637 5636 5635 5633 5632 5631 5630 5628 5626 5624 5623 5620 5618 5616 5613 5610 5607 5604 5601 5597 5593 5589 5586 5582 5578 5574 5571 5568 5565 5561
5654 5652 5650 5648 5646 5645 5643 5642 5641 5640 5640 5639 5638 5637 5637 5636 5635 5634 5632 5631 5630 5628 5627 5625 5623 5621 5618 5616 5613 5610 5607 5603 5600 5596 5593 5589 5585 5581 5578 5575 5572 5569 5566
5656 5653 5651 5649 5647 5646 5644 5643 5642 5641 5641 5640 5639 5639 5638 5637 5636 5635 5634 5633 5632 5630 5629 5627 5625 5623 5621 5618 5615 5613 5610 5606 5603 5599 5596 5592 5589 5585 5582 5579 5576 5573 5570